TimeCDT,TemperatureF,Dew PointF,Humidity,Sea Level PressureIn,VisibilityMPH,Wind Direction,Wind SpeedMPH,Gust SpeedMPH,PrecipitationIn,Events,Conditions,WindDirDegrees,DateUTC
12:15 AM,32.2,31.6,98,29.89,7.0,North,21.9,26.5,0.01,Rain,Light Rain,350,2013-05-04 05:15:00
12:35 AM,32.4,31.8,98,29.88,10.0,North,19.6,26.5,0.01,Rain,Light Rain,350,2013-05-04 05:35:00
12:55 AM,32.4,31.8,98,29.88,10.0,North,19.6,24.2,0.01,Rain,Light Rain,350,2013-05-04 05:55:00
1:15 AM,32.5,32.0,98,29.86,10.0,North,20.7,-,N/A,Rain,Light Rain,350,2013-05-04 06:15:00
1:35 AM,32.9,32.0,96,29.86,10.0,North,17.3,26.5,N/A,Rain,Light Rain,350,2013-05-04 06:35:00
1:55 AM,32.9,32.0,96,29.86,10.0,North,18.4,25.3,N/A,,Light Drizzle,360,2013-05-04 06:55:00
2:15 AM,32.9,32.0,96,29.86,10.0,North,17.3,25.3,N/A,,Overcast,360,2013-05-04 07:15:00
2:35 AM,33.1,32.0,96,29.84,10.0,North,18.4,25.3,N/A,Rain,Light Rain,360,2013-05-04 07:35:00
2:55 AM,33.1,32.2,96,29.86,10.0,North,12.7,21.9,N/A,,Overcast,360,2013-05-04 07:55:00
3:15 AM,33.3,32.4,96,29.85,10.0,North,13.8,-,N/A,,Overcast,360,2013-05-04 08:15:00
3:35 AM,33.4,32.5,96,29.85,10.0,North,13.8,-,N/A,,Overcast,360,2013-05-04 08:35:00
3:55 AM,33.4,32.5,96,29.85,10.0,North,15.0,-,N/A,,Overcast,350,2013-05-04 08:55:00
4:15 AM,33.8,32.9,96,29.85,7.0,North,11.5,-,N/A,,Overcast,360,2013-05-04 09:15:00
4:35 AM,33.8,32.9,96,29.85,7.0,NNW,16.1,-,N/A,,Overcast,340,2013-05-04 09:35:00
4:55 AM,33.8,33.1,97,29.86,5.0,North,12.7,-,N/A,,Overcast,350,2013-05-04 09:55:00
5:15 AM,34.0,33.3,97,29.86,2.5,North,12.7,18.4,N/A,,Overcast,350,2013-05-04 10:15:00
5:35 AM,34.2,33.6,98,29.86,1.5,North,11.5,-,N/A,,Overcast,350,2013-05-04 10:35:00
5:55 AM,34.3,33.8,98,29.86,1.0,North,15.0,18.4,N/A,,Overcast,350,2013-05-04 10:55:00
6:15 AM,34.3,33.6,97,29.86,0.8,NNW,16.1,-,N/A,,Overcast,340,2013-05-04 11:15:00
6:35 AM,34.3,33.6,97,29.87,1.0,North,11.5,-,N/A,,Light Drizzle,350,2013-05-04 11:35:00
6:55 AM,34.5,33.8,97,29.88,0.8,NNW,13.8,-,N/A,,Overcast,340,2013-05-04 11:55:00
7:15 AM,34.7,33.8,97,29.88,0.8,NNW,10.4,-,N/A,,Overcast,340,2013-05-04 12:15:00
7:35 AM,34.7,33.8,97,29.88,1.0,NNW,12.7,-,N/A,,Overcast,330,2013-05-04 12:35:00
7:55 AM,34.9,34.2,97,29.89,0.8,NNW,13.8,-,N/A,,Overcast,340,2013-05-04 12:55:00
8:15 AM,34.9,34.2,97,29.89,0.5,NNW,12.7,-,N/A,Fog,Fog,330,2013-05-04 13:15:00
8:35 AM,35.2,34.5,97,29.90,0.8,NNW,11.5,-,N/A,,Overcast,340,2013-05-04 13:35:00
8:55 AM,35.6,34.7,97,29.91,0.8,NNW,10.4,-,N/A,,Overcast,340,2013-05-04 13:55:00
9:15 AM,35.6,34.9,97,29.92,0.2,North,10.4,-,N/A,Fog,Fog,350,2013-05-04 14:15:00
9:35 AM,36.3,35.6,97,29.92,0.2,NNW,10.4,-,N/A,Fog,Fog,340,2013-05-04 14:35:00
9:55 AM,36.9,36.1,97,29.93,0.2,NNW,10.4,-,N/A,Fog,Fog,340,2013-05-04 14:55:00
10:15 AM,37.0,36.5,98,29.94,0.2,NNW,8.1,-,N/A,Fog,Fog,340,2013-05-04 15:15:00
10:35 AM,37.9,37.4,98,29.94,0.2,NNW,12.7,-,N/A,Fog,Fog,340,2013-05-04 15:35:00
10:55 AM,38.5,37.8,97,29.95,0.2,NNW,10.4,-,N/A,Fog,Fog,340,2013-05-04 15:55:00
11:15 AM,39.2,38.3,97,29.95,0.5,NNW,10.4,-,N/A,Fog,Fog,330,2013-05-04 16:15:00
11:35 AM,40.1,39.2,97,29.97,0.5,North,9.2,-,N/A,Fog,Fog,350,2013-05-04 16:35:00
11:55 AM,41.0,40.1,97,29.97,0.5,North,8.1,-,N/A,Fog,Fog,350,2013-05-04 16:55:00
12:15 PM,41.9,41.0,97,29.97,0.5,North,8.1,-,N/A,Fog,Fog,350,2013-05-04 17:15:00
12:35 PM,42.8,41.9,97,29.98,1.2,North,6.9,-,N/A,,Overcast,350,2013-05-04 17:35:00
12:55 PM,43.7,42.8,97,29.97,1.0,NNW,8.1,-,N/A,,Overcast,340,2013-05-04 17:55:00
1:15 PM,44.6,43.7,97,29.97,1.5,NNW,9.2,-,N/A,,Overcast,330,2013-05-04 18:15:00
1:35 PM,44.8,43.9,97,29.97,1.5,NNW,9.2,-,N/A,,Overcast,340,2013-05-04 18:35:00
1:55 PM,45.1,44.2,97,29.98,1.2,NNW,9.2,-,N/A,,Overcast,340,2013-05-04 18:55:00
2:15 PM,45.1,44.1,96,29.98,0.5,NNW,8.1,-,N/A,Fog,Fog,340,2013-05-04 19:15:00
2:35 PM,45.5,44.4,96,29.98,0.8,NNW,11.5,-,N/A,,Overcast,340,2013-05-04 19:35:00
2:55 PM,47.1,45.9,95,29.98,2.0,NNW,10.4,-,N/A,,Overcast,340,2013-05-04 19:55:00
3:15 PM,47.5,46.0,95,29.98,3.0,NNW,9.2,-,N/A,,Overcast,340,2013-05-04 20:15:00
3:35 PM,48.2,46.6,94,29.98,3.0,NNW,11.5,-,N/A,,Overcast,340,2013-05-04 20:35:00
3:55 PM,48.6,46.4,92,29.98,3.0,NNW,13.8,-,N/A,,Overcast,340,2013-05-04 20:55:00
4:15 PM,49.1,47.3,93,29.98,3.0,NNW,12.7,-,N/A,,Overcast,340,2013-05-04 21:15:00
4:35 PM,48.9,46.6,92,29.98,3.0,NNW,9.2,-,N/A,,Overcast,340,2013-05-04 21:35:00
4:55 PM,49.1,46.9,92,29.98,3.0,North,12.7,-,N/A,,Overcast,350,2013-05-04 21:55:00
5:15 PM,48.6,46.4,92,29.98,4.0,NNW,11.5,-,N/A,,Overcast,330,2013-05-04 22:15:00
5:35 PM,48.7,46.4,92,29.99,5.0,NW,12.7,-,N/A,,Overcast,320,2013-05-04 22:35:00
5:55 PM,48.4,45.9,91,29.99,5.0,NNW,13.8,-,N/A,,Overcast,330,2013-05-04 22:55:00
6:15 PM,47.8,45.5,92,30.00,5.0,NNW,10.4,-,N/A,,Overcast,330,2013-05-04 23:15:00
6:35 PM,47.3,45.1,92,30.01,3.0,NNW,10.4,-,N/A,Rain,Rain,340,2013-05-04 23:35:00
6:55 PM,46.8,45.1,94,30.01,2.0,NW,9.2,-,N/A,,Drizzle,320,2013-05-04 23:55:00
7:15 PM,45.7,44.2,95,30.01,3.0,NNW,11.5,-,N/A,,Drizzle,330,2013-05-05 00:15:00
7:35 PM,45.0,43.7,95,30.02,4.0,NW,12.7,-,N/A,,Overcast,320,2013-05-05 00:35:00
7:55 PM,44.6,43.2,95,30.02,5.0,NW,9.2,-,N/A,,Overcast,320,2013-05-05 00:55:00
8:15 PM,43.9,42.4,95,30.03,7.0,NW,11.5,-,N/A,,Overcast,320,2013-05-05 01:15:00
8:35 PM,43.7,42.1,94,30.04,10.0,NNW,9.2,-,N/A,,Overcast,330,2013-05-05 01:35:00
8:55 PM,43.3,41.7,94,30.04,10.0,NW,11.5,-,N/A,Rain,Rain,320,2013-05-05 01:55:00
9:15 PM,43.0,41.4,94,30.04,7.0,NW,10.4,-,N/A,,Overcast,310,2013-05-05 02:15:00
9:35 PM,42.4,41.0,95,30.04,7.0,NW,10.4,-,N/A,,Overcast,310,2013-05-05 02:35:00
9:55 PM,42.4,41.0,95,30.05,7.0,NW,8.1,-,N/A,,Overcast,310,2013-05-05 02:55:00
10:15 PM,42.3,41.0,95,30.05,7.0,NW,11.5,-,N/A,Rain,Light Rain,320,2013-05-05 03:15:00
10:35 PM,42.1,40.8,95,30.06,4.0,NW,10.4,-,N/A,Rain,Rain,320,2013-05-05 03:35:00
10:55 PM,42.3,41.0,95,30.06,3.0,NW,6.9,-,N/A,,Drizzle,310,2013-05-05 03:55:00
11:15 PM,42.1,41.0,96,30.06,3.0,NW,8.1,-,N/A,,Drizzle,320,2013-05-05 04:15:00
11:35 PM,42.3,41.0,95,30.06,5.0,NW,6.9,-,N/A,,Light Drizzle,310,2013-05-05 04:35:00
11:55 PM,42.3,41.0,95,30.06,5.0,NW,6.9,-,N/A,Rain,Light Rain,320,2013-05-05 04:55:00